SCP
0 0 0 0 0 0 0 0 0 0 0 0 0 0 0 0 0 0 0 0 0 0
0 0 0 0 0 0 0 0 0 0 0 0 0 0 0 0 0 0 0 0 0 0
0 0 0 0 0 0 0 0 0 0 0 0 0 0 0 0 0 0 0 0 0 0
0 0 0 0 0 0 0 0 0 0 0 0 0 0 0 0 0 0 0 0 0 0
0 0 0 0 0 0 0 0 0 0 0 0 0 0 0 0 0 0 0 0 0 0
0 0 0 0 0 0 0 0 0 0 0 0 0 0 0 0 0 0 0 0 0 0
0 0 0 0 0 0 0 0 0 0 0 0 0 0 0 0 0 0 0 0 0 0
0 0 0 0 0 0 0 0 0 0 0 0 0 0 0 0 0 0 0 0 0 0
0 0 0 0 0 0 0 0 0 0 0 0 0 0 0 0 0 0 0 0 0 0
0 0 0 0 0 0 0 0 0 0 0 0 0 0 0 0 0 0 0 0 0 0
0 0 0 0 0 0 0 0 0 0 0 0 0 0 0 0 0 0 0 0 0 0
0 0 0 0 0 0 0 0 0 0 0 0 0 0 0 0 0 0 0 0 0 0
0 0 0 0 0 0 0 0 0 0 0 0 0 0 0 0 0 0 0 0 0 0
0 0 0 0 0 0 0 0 0 0 0 0 0 0 0 0 0 0 0 0 0 0
Wind_Speed_500mb
68 68 64 62 60 61 61 62 62 65 69 71 67 70 76 84 85 83 83 81 77 75
52 64 71 73 65 57 61 62 65 64 63 67 68 66 70 75 82 86 90 88 82 80
23 30 38 48 59 64 58 56 56 61 64 64 64 66 70 61 74 82 84 85 81 83
4 7 12 18 27 40 51 61 68 69 68 65 63 64 74 73 72 76 80 83 83 79
6 6 7 9 11 16 20 24 29 33 40 51 58 64 63 67 67 66 69 71 77 81
7 8 11 12 13 15 18 21 26 32 34 39 43 47 51 56 60 62 64 64 66 65
18 20 24 28 28 29 31 32 34 36 37 40 43 45 48 52 55 56 58 57 57 58
21 25 29 32 35 36 38 42 45 48 47 48 48 48 50 52 57 59 59 60 61 62
23 25 29 32 34 37 40 43 47 49 52 55 55 55 55 54 54 55 60 64 65 68
32 33 35 37 39 42 44 47 49 52 55 57 58 58 61 63 65 62 61 62 63 65
30 32 34 37 40 44 47 50 52 53 55 58 57 58 60 62 64 67 70 70 67 67
38 39 41 42 44 45 49 50 53 56 58 60 60 61 61 62 64 66 66 66 70 73
44 46 47 48 48 48 49 52 52 54 56 58 61 62 66 65 66 68 67 67 66 66
50 53 54 56 55 57 57 58 57 58 56 58 60 61 62 63 65 68 70 68 67 65
Wind_Direction_500mb
240 241 243 252 252 259 261 266 270 270 268 265 267 267 265 263 261 258 256 252 251 254
247 248 249 250 251 255 262 261 262 263 263 266 268 269 271 270 263 257 259 258 254 255
262 263 261 258 256 252 254 259 261 262 262 261 263 266 270 271 273 260 254 252 258 261
348 305 283 271 267 262 259 258 259 257 259 259 261 263 266 270 267 267 264 265 267 266
39 350 329 316 302 293 288 281 277 273 266 261 261 263 266 266 267 266 265 264 264 262
355 341 326 318 310 305 300 299 294 289 284 279 274 269 268 268 269 270 269 269 268 268
318 317 314 314 314 313 310 307 302 300 296 292 287 285 282 277 273 272 272 272 273 265
331 326 319 313 312 309 305 301 298 296 295 293 294 295 293 291 290 284 278 273 272 270
330 324 318 317 318 316 311 306 305 303 299 298 296 292 288 286 285 284 284 281 278 278
326 324 322 320 319 317 314 312 310 311 311 310 309 306 302 296 290 285 281 280 278 275
311 312 312 313 315 315 314 313 313 311 311 310 310 307 306 302 298 295 291 286 281 279
321 321 320 319 318 316 312 311 310 309 308 307 307 308 306 303 298 295 292 289 287 284
321 321 320 317 316 313 310 308 306 305 304 303 304 305 304 304 302 297 295 291 284 281
319 319 320 321 322 319 317 313 310 306 305 302 302 302 301 302 301 299 298 294 290 286
Wind_Speed_850mb
68 68 64 62 60 61 61 62 62 65 69 71 67 70 76 84 85 83 83 81 77 75
52 64 71 73 65 57 61 62 65 64 63 67 68 66 70 75 82 86 90 88 82 80
23 30 38 48 59 64 58 56 56 61 64 64 64 66 70 61 74 82 84 85 81 83
4 7 12 18 27 40 51 61 68 69 68 65 63 64 74 73 72 76 80 83 83 79
6 6 7 9 11 16 20 24 29 33 40 51 58 64 63 67 67 66 69 71 77 81
7 8 11 12 13 15 18 21 26 32 34 39 43 47 51 56 60 62 64 64 66 65
18 20 24 28 28 29 31 32 34 36 37 40 43 45 48 52 55 56 58 57 57 58
21 25 29 32 35 36 38 42 45 48 47 48 48 48 50 52 57 59 59 60 61 62
23 25 29 32 34 37 40 43 47 49 52 55 55 55 55 54 54 55 60 64 65 68
32 33 35 37 39 42 44 47 49 52 55 57 58 58 61 63 65 62 61 62 63 65
30 32 34 37 40 44 47 50 52 53 55 58 57 58 60 62 64 67 70 70 67 67
38 39 41 42 44 45 49 50 53 56 58 60 60 61 61 62 64 66 66 66 70 73
44 46 47 48 48 48 49 52 52 54 56 58 61 62 66 65 66 68 67 67 66 66
50 53 54 56 55 57 57 58 57 58 56 58 60 61 62 63 65 68 70 68 67 65
Wind_Direction_850mb
240 241 243 252 252 259 261 266 270 270 268 265 267 267 265 263 261 258 256 252 251 254
247 248 249 250 251 255 262 261 262 263 263 266 268 269 271 270 263 257 259 258 254 255
262 263 261 258 256 252 254 259 261 262 262 261 263 266 270 271 273 260 254 252 258 261
348 305 283 271 267 262 259 258 259 257 259 259 261 263 266 270 267 267 264 265 267 266
39 350 329 316 302 293 288 281 277 273 266 261 261 263 266 266 267 266 265 264 264 262
355 341 326 318 310 305 300 299 294 289 284 279 274 269 268 268 269 270 269 269 268 268
318 317 314 314 314 313 310 307 302 300 296 292 287 285 282 277 273 272 272 272 273 265
331 326 319 313 312 309 305 301 298 296 295 293 294 295 293 291 290 284 278 273 272 270
330 324 318 317 318 316 311 306 305 303 299 298 296 292 288 286 285 284 284 281 278 278
326 324 322 320 319 317 314 312 310 311 311 310 309 306 302 296 290 285 281 280 278 275
311 312 312 313 315 315 314 313 313 311 311 310 310 307 306 302 298 295 291 286 281 279
321 321 320 319 318 316 312 311 310 309 308 307 307 308 306 303 298 295 292 289 287 284
321 321 320 317 316 313 310 308 306 305 304 303 304 305 304 304 302 297 295 291 284 281
319 319 320 321 322 319 317 313 310 306 305 302 302 302 301 302 301 299 298 294 290 286